Regional Weather Roundup
Issued by NWS

Home | Current Version | Previous Version | Graphics & Text | Print | Product List | Glossary On
Versions: 1 2 3 4 5 6 7 8 9 10 11 12 13 14 15 16 17 18 19 20 21 22 23 24 25 26 27 28 29 30 31 32 33 34 35 36 37 38 39 40 41 42 43 44 45 46 47 48 49 50
000
ASUS43 KTOP 201308
RWRKS

WEATHER ROUNDUP FOR KANSAS
NATIONAL WEATHER SERVICE GOODLAND KS
800 AM CDT SUN AUG 20 2017

NOTE:  "FAIR" INDICATES FEW OR NO CLOUDS BELOW 12,000 FEET WITH NO
SIGNIFICANT WEATHER AND/OR OBSTRUCTIONS TO VISIBILITY.

KSZ001>006-013>018-027>032-041>047-201400-
NORTHWEST KANSAS

CITY           SKY/WX    TMP DP  RH WIND       PRES   REMARKS
GOODLAND       CLEAR     65  54  67 W6        29.95R
HAYS           SUNNY     73  67  81 SW7       29.91R
HILL CITY      SUNNY     73  65  75 SW8       29.89R
RUSSELL        SUNNY     73  66  78 SE9       29.91R
$$

KSZ061>065-074>080-084>089-201400-
SOUTHWEST KANSAS

CITY           SKY/WX    TMP DP  RH WIND       PRES   REMARKS
DODGE CITY     SUNNY     71  64  78 S9        29.97R
ELKHART          N/A     66  64  93 SW9         N/A
GARDEN CITY    SUNNY     68  65  90 S6        29.96R
GREAT BEND     SUNNY     71  66  84 S8        29.93R
LIBERAL        CLEAR     70  65  84 MISG        N/A
PRATT          SUNNY     73  65  76 S10       29.96R
$$

KSZ066>073-081>083-090>101-201400-
SOUTHEAST KANSAS

CITY           SKY/WX    TMP DP  RH WIND       PRES   REMARKS
CHANUTE        SUNNY     75  69  81 MISG      29.99R
COFFEYVILLE    SUNNY     78  76  93 S8        29.97R
HUTCHINSON     SUNNY     74  69  85 SE6       29.95R
MEDICINE LODGE   N/A     72  67  84 SE5       29.95S
NEWTON           N/A     74  69  85 S8        29.97R
PARSONS        SUNNY     77  73  87 SE3       29.99R
WICHITA INTL   MOSUNNY   74  69  85 SW6       29.94R
WICHITA JABRA  SUNNY     77  69  76 SW14      29.95R
WICHITA MCCONL SUNNY     74  67  79 SW8       29.96R
WINFIELD       SUNNY     76  70  82 S5        29.97R
$$

KSZ007>012-019>026-033>040-048>060-102>105-201400-
NORTHEAST KANSAS

CITY           SKY/WX    TMP DP  RH WIND       PRES   REMARKS
CONCORDIA      SUNNY     67  65  93 E9        29.94R
EMPORIA        MOSUNNY   74  65  73 E8        29.99R
LAWRENCE       CLOUDY    69  68  96 E6        29.99R
MANHATTAN      CLOUDY    70  65  84 VRB5      29.96R
MARYSVILLE     SUNNY     68  63  83 SE12      29.94S
OLATHE IND     CLOUDY    71  65  81 E7        30.00F
OLATHE EXE     PTSUNNY   69  66  90 E8        30.00F
SALINA         SUNNY     79  70  74 SE10      29.92R
TOPEKA BILLARD CLOUDY    71  70  96 E6        29.98R
TOPEKA FORBES  MOSUNNY   72  68  87 E10       29.98R
$$




USA.gov is the U.S. government's official web portal to all federal, state and local government web resources and services.